Location: Sevilla
(37.3933°N, 5.9839°W)
Time: 05:10:33
(UTC+02:00)

Tiros 1 despin weight - Pass Details

Date: 03 July 2024
Orbit: 576 x 620 km, 48.2° (Epoch: 22 July)

Event Time Altitude Azimuth Distance (km) Brightness Sun altitude
Rises 15:07:02 0° 306° (NW) 2,891 ? 73.3°
Reaches altitude 10° 15:09:29 10° 314° (NW) 1,986 ? 73.0°
Maximum altitude 15:13:47 39° 24° (NNE) 927 ? 72.5°
Drops below altitude 10° 15:18:04 10° 94° (E) 1,980 ? 72.0°
Sets 15:20:30 0° 102° (ESE) 2,881 ? 71.7°
